Location: Blue Mountain Vista Observatory
(40.6992°N, 75.9422°W)
Time: 09:27:17
(UTC-04:00)

Daily predictions for brighter satellites

Satellite Brightness Start Highest point End
(mag) Time Altitude Azimuth Time Altitude Azimuth Time Altitude Azimuth
Cosmos 1544 Rocket 3.5 20:04:35 10° S 20:08:55 69° E 20:13:19 10° NNE
ALOS 2.6 20:06:05 10° SSE 20:10:35 49° ENE 20:15:06 10° N
Cosmos 2208 Rocket 4.1 20:06:25 10° S 20:11:40 67° ESE 20:17:03 10° NNE
Cosmos 2369 3.8 20:07:21 10° S 20:12:51 56° ESE 20:18:25 10° NNE
Spot 2 Rocket 3.9 20:08:14 10° S 20:13:19 72° WSW 20:18:25 10° NNW
Cosmos 1980 Rocket 3.8 20:12:25 10° SE 20:15:02 13° E 20:17:39 10° ENE
Cosmos 1975 3.8 20:12:38 10° SSE 20:16:06 27° E 20:19:35 10° NNE
H-2A R/B 3.2 20:13:17 10° SE 20:16:57 42° ENE 20:20:42 10° N
Helios 1B rocket 3.3 20:15:18 10° N 20:19:20 55° WNW 20:23:21 10° SSW
CZ-4B DEB 2.8 20:18:02 10° SSE 20:21:18 80° E 20:24:36 10° N
Lacrosse 5 rocket 1.3 20:18:54 10° NW 20:22:35 55° NE 20:25:57 11° ESE
Envisat 4.4 20:20:26 10° ESE 20:24:03 20° ENE 20:27:41 10° NNE
USA 186 2.1 20:21:52 10° SE 20:24:48 39° ENE 20:27:33 10° N
Okean 2 3.5 20:21:21 10° N 20:25:32 84° W 20:29:40 10° S
Cosmos 1570 Rocket 4.2 20:20:53 10° SSW 20:26:12 83° WNW 20:31:30 10° NNE
Iridium 4 Rocket 4.1 20:22:12 10° NNE 20:26:45 33° E 20:30:55 10° SE
Meteor 2-16 Rocket 4.5 20:22:55 10° S 20:29:00 89° E 20:35:07 10° N
OTV 4 1.7 20:29:15 10° W 20:31:54 29° SSW 20:34:01 14° SE
Meteor 1-12 Rocket 4.3 20:30:14 10° S 20:35:50 59° E 20:41:34 10° NNE
FENGYUN 3A 3.6 20:31:08 10° SSE 20:36:29 86° ENE 20:41:52 10° NNW
CZ-2D R/B 3.2 20:33:30 10° SSE 20:37:22 85° ENE 20:41:17 10° N
Cosmos 1656 3.8 20:34:19 10° S 20:39:45 52° ESE 20:45:08 10° NNE
Cosmos 2227 Rocket 2.3 20:38:08 10° NNW 20:43:50 81° WSW 20:49:28 10° SSE
Cosmos 2150 Rocket 4.5 20:40:12 10° N 20:45:04 41° ENE 20:48:42 17° SE
Tiangong 1 1.5 20:42:14 10° WNW 20:45:19 56° N 20:47:24 18° E
Cosmos 1605 Rocket 4.0 20:40:46 10° S 20:47:07 87° E 20:53:25 10° N
Cosmos 1500 3.5 20:46:50 10° SSE 20:50:22 41° E 20:53:56 10° NNE
ERS-1 Rocket 3.3 20:48:08 15° SE 20:52:03 45° ENE 20:56:50 10° N
Cosmos 1939 Rocket 3.8 20:49:57 20° ESE 20:52:08 33° ENE 20:55:53 10° N
Lacrosse 5 2.5 20:48:55 10° NW 20:53:45 43° NE 20:56:52 20° E
Cosmos 2100 Rocket 4.3 20:50:03 10° SSE 20:55:56 44° E 21:01:47 10° NNE
Cosmos 1461 3.8 20:52:28 10° NW 20:56:20 44° WSW 20:59:59 10° S
Cosmos 1346 Rocket 4.2 20:53:37 10° NNW 20:57:20 40° W 21:01:04 10° SSW
DELTA 2 R/B (1) 3.7 20:52:39 10° W 20:58:10 64° SSW 21:01:40 23° ESE
Cosmos 2082 4.1 20:53:18 10° NNW 20:58:52 65° WSW 21:04:24 10° S
Cosmos 2297 Rocket 2.2 20:53:26 10° NNW 20:59:08 84° WSW 21:04:20 12° SSE
Cosmos 1340 4.0 20:58:33 10° NNE 21:01:35 22° ENE 21:01:55 22° E
SPOT 5 4.0 21:00:31 21° ESE 21:02:23 27° ENE 21:06:25 10° N
Cosmos 2061 Rocket 4.3 20:56:57 10° SSE 21:02:53 45° E 21:08:47 10° NNE
YAOGAN 11 4.2 21:00:22 17° SSE 21:03:43 64° ENE 21:08:09 10° N
Cosmos 1763 Rocket 4.3 21:01:53 22° SE 21:03:50 28° E 21:08:06 10° NE
YAOGAN 6 4.5 21:04:21 16° ENE 21:04:21 16° ENE 21:06:37 10° NNE
Cosmos 1898 Rocket 3.5 20:59:04 10° NNW 21:04:21 65° ENE 21:07:49 21° SSE
H-2A R/B 3.0 21:03:38 25° E 21:04:43 28° ENE 21:08:17 10° N
Cosmos 1626 Rocket 3.8 21:04:09 10° NNW 21:08:33 71° W 21:12:52 10° S
Cosmos 1515 3.7 21:10:16 10° N 21:14:07 82° W 21:16:39 20° S
Cosmos 1602 Rocket 4.2 21:13:28 10° NNW 21:17:51 56° W 21:22:09 10° S
RESURS DK-1 2.5 21:15:18 10° NNW 21:19:23 54° ENE 21:20:28 41° ESE
Cosmos 468 Rocket 3.8 21:14:19 10° SSW 21:19:26 85° ESE 21:24:35 10° NNE
Cosmos 1758 Rocket 4.5 21:16:20 10° NNE 21:20:09 29° ENE 21:20:18 29° E
deb Chang Zheng 4 3.9 21:17:54 10° NNE 21:22:12 45° E 21:23:15 37° SE
Cosmos 2084 3.3 21:18:17 10° NW 21:22:22 81° WSW 21:23:56 38° SSE
CZ-4 DEB 3.0 21:22:56 36° S 21:24:00 63° WSW 21:27:08 10° NNW
SJ-11-01 4.3 21:20:46 20° S 21:24:04 80° WSW 21:28:46 10° NNW
Cosmos 841 Rocket 3.9 21:24:57 34° SE 21:26:13 40° ESE 21:31:05 10° NE
Cosmos 1743 2.6 21:26:38 43° SSE 21:27:43 66° E 21:31:38 10° NNE
Cosmos 1459 Rocket 3.8 21:21:58 10° S 21:27:58 74° E 21:34:04 10° N
Cosmos 1814 Rocket 4.0 21:24:32 10° SSW 21:29:53 88° ESE 21:35:13 10° NNE
Terra 4.0 21:32:33 11° NE 21:32:33 11° NE 21:33:38 10° NE
Cosmos 1066 Rocket 4.4 21:28:23 10° NNW 21:34:04 76° W 21:38:15 19° S
Cosmos 1697 Rocket 2.8 21:29:33 10° SSW 21:35:12 75° WNW 21:40:53 10° NNE
OAO 2 Rocket 3.7 21:33:02 10° WSW 21:37:50 44° S 21:38:28 42° SSE
SL-16 R/B 3.7 21:46:17 20° ENE 21:46:17 20° ENE 21:48:26 10° NE
Cosmos 2058 Rocket 3.6 21:45:01 43° ENE 21:45:01 43° ENE 21:48:40 10° NNE
Cosmos 1606 Rocket 3.4 21:50:20 60° S 21:51:07 89° E 21:55:34 10° N
ASTEX 1 3.3 21:46:59 10° N 21:51:59 70° E 21:52:42 60° SE
ARGOS 3.5 21:53:32 45° E 21:53:55 46° ENE 21:59:02 10° N
Cosmos 1842 4.1 21:52:21 10° N 21:55:11 41° NNE 21:55:11 41° NNE
Cosmos 1980 Rocket 2.2 21:52:34 10° SSW 21:58:14 80° WNW 22:03:58 10° NNE
Lacrosse 5 rocket 3.5 21:59:27 10° W 22:01:21 14° WSW 22:01:42 14° SW
Cosmos 1802 Rocket 4.2 21:55:57 11° SSW 22:02:03 72° W 22:08:30 10° N
Envisat 3.7 22:00:25 29° SSW 22:02:40 50° W 22:07:37 10° NNW
SL-08 R/B 4.3 22:00:46 38° S 22:03:23 83° E 22:09:35 10° N
Cosmos 1937 Rocket 4.3 22:02:30 10° NNW 22:07:33 47° WSW 22:09:16 35° SSW
MetOp-B 4.1 22:07:39 62° S 22:08:35 84° WSW 22:13:58 10° NNW
Cosmos 1726 Rocket 3.9 22:14:23 58° W 22:14:37 59° W 22:18:58 10° N
Cosmos 1666 4.1 22:16:27 33° N 22:16:27 33° N 22:18:41 10° N
Cosmos 2016 Rocket 4.2 22:11:10 24° SSW 22:14:59 67° W 22:21:10 10° N
H-2A R/B 3.0 22:17:51 33° NE 22:17:51 33° NE 22:21:18 10° N
Meteor 1-15 Rocket 4.2 22:19:19 72° SSE 22:19:56 84° E 22:25:50 10° N
Tiangong 1 4.1 22:18:47 10° WNW 22:19:22 14° W 22:19:22 14° W
CZ-4B R/B 4.2 22:17:58 10° NNE 22:21:04 40° NNE 22:21:04 40° NNE
Cosmos 2263 Rocket 3.1 22:20:56 10° N 22:25:29 35° NE 22:25:29 35° NE
Cosmos 2322 Rocket 2.7 22:32:37 47° NE 22:32:37 47° NE 22:36:36 10° NNE
SL-08 RB Rocket 4.4 22:33:41 51° N 22:33:41 51° N 22:37:11 10° NNW
Cosmos 2098 Rocket 4.3 22:29:39 34° SSW 22:32:42 65° W 22:38:32 10° N
SPOT 1/Viking Rocket 3.7 22:36:08 68° W 22:36:08 68° W 22:41:04 10° NNW
Lacrosse 5 3.1 22:32:05 10° WNW 22:36:04 33° WSW 22:36:04 33° WSW
SPOT 5 4.2 22:39:47 33° WSW 22:40:18 34° W 22:44:44 10° NNW
H-2A R/B 4.0 22:40:46 22° W 22:40:46 22° W 22:43:59 10° NW
Tsikada Rocket 4.4 22:44:16 10° NNW 22:50:33 58° W 22:51:23 54° WSW
Cosmos 1125 Rocket 4.2 22:47:28 10° NNW 22:51:36 52° NW 22:51:36 52° NW
USA 215 3.3 23:03:14 71° NNE 23:03:14 71° NNE 23:09:40 10° NW
Terra 3.4 23:11:26 33° NNW 23:11:26 33° NNW 23:14:02 10° NNW
SL-16 R/B 3.3 23:28:05 40° NW 23:28:05 40° NW 23:32:56 10° N
Cosmos 1844 Rocket 4.4 23:33:31 10° N 23:36:28 25° NNE 23:36:28 25° NNE
Cosmos 2360 Rocket 3.9 23:45:50 27° NNE 23:45:50 27° NNE 23:48:17 10° NNE
